Time,TemperatureF,DewpointF,PressureIn,WindDirection,WindDirectionDegrees,WindSpeedMPH,WindSpeedGustMPH,Humidity,HourlyPrecipIn,Conditions,Clouds,dailyrainin,SolarRadiationWatts/m^2,SoftwareType,DateUTC
2013-08-21 00:00:00,74.2,66.1,29.95,South,169,0.0,0.0,76,0.00,SCT,,0.00,0.0,WeatherDisplay:10.37,2013-08-21 05:00:00,
2013-08-21 00:06:00,74.3,66.2,29.95,SE,142,2.5,6.9,76,0.00,SCT,,0.00,0.0,WeatherDisplay:10.37,2013-08-21 05:06:00,
2013-08-21 00:11:00,74.5,66.1,29.95,SSE,165,1.3,3.5,75,0.00,CLR,,0.00,0.0,WeatherDisplay:10.37,2013-08-21 05:11:00,
2013-08-21 00:16:00,74.5,66.1,29.95,SSE,168,0.0,0.0,75,0.00,CLR,,0.00,0.0,WeatherDisplay:10.37,2013-08-21 05:16:00,
2013-08-21 00:21:00,74.4,66.3,29.95,South,185,0.0,2.3,76,0.00,CLR,,0.00,0.0,WeatherDisplay:10.37,2013-08-21 05:21:00,
2013-08-21 00:27:00,74.5,66.1,29.95,South,174,0.0,1.0,75,0.00,CLR,CLR,0.00,0.0,WeatherDisplay:10.37,2013-08-21 05:27:00,
2013-08-21 00:32:00,74.1,66.1,29.95,SSE,158,0.0,3.0,76,0.00,CLR,CLR,0.00,0.0,WeatherDisplay:10.37,2013-08-21 05:32:00,
2013-08-21 00:37:00,74.2,66.1,29.95,SSE,159,0.0,6.0,76,0.00,CLR,CLR,0.00,0.0,WeatherDisplay:10.37,2013-08-21 05:37:00,
2013-08-21 00:42:00,74.1,66.0,29.95,South,187,0.0,0.0,76,0.00,CLR,,0.00,0.0,WeatherDisplay:10.37,2013-08-21 05:42:00,
2013-08-21 00:47:00,74.3,66.2,29.95,South,184,0.0,0.0,76,0.00,CLR,,0.00,0.0,WeatherDisplay:10.37,2013-08-21 05:47:00,
2013-08-21 00:52:00,74.2,66.1,29.95,SE,126,0.0,0.0,76,0.00,CLR,,0.00,0.0,WeatherDisplay:10.37,2013-08-21 05:52:00,
2013-08-21 00:58:00,74.0,66.0,29.96,ESE,115,0.6,1.0,76,0.00,CLR,,0.00,0.0,WeatherDisplay:10.37,2013-08-21 05:58:00,
2013-08-21 01:03:00,74.0,66.0,29.96,SSW,196,0.1,3.5,76,0.00,CLR,,0.00,0.0,WeatherDisplay:10.37,2013-08-21 06:03:00,
2013-08-21 01:08:00,73.9,66.2,29.96,SSE,166,0.5,4.0,77,0.00,CLR,,0.00,0.0,WeatherDisplay:10.37,2013-08-21 06:08:00,
2013-08-21 01:13:00,73.9,66.2,29.96,SE,138,0.1,2.0,77,0.00,CLR,,0.00,0.0,WeatherDisplay:10.37,2013-08-21 06:13:00,
2013-08-21 01:18:00,74.2,66.1,29.96,SSE,150,0.0,2.3,76,0.00,CLR,,0.00,0.0,WeatherDisplay:10.37,2013-08-21 06:18:00,
2013-08-21 01:24:00,74.1,66.0,29.96,SSE,147,0.8,6.9,76,0.00,CLR,,0.00,0.0,WeatherDisplay:10.37,2013-08-21 06:24:00,
2013-08-21 01:29:00,74.2,66.1,29.96,SSE,167,0.0,0.0,76,0.00,CLR,,0.00,0.0,WeatherDisplay:10.37,2013-08-21 06:29:00,
2013-08-21 01:34:00,74.3,66.2,29.96,SSE,149,0.9,3.5,76,0.00,CLR,,0.00,0.0,WeatherDisplay:10.37,2013-08-21 06:34:00,
2013-08-21 01:40:00,74.2,66.1,29.96,SSE,149,0.0,0.0,76,0.00,CLR,,0.00,0.0,WeatherDisplay:10.37,2013-08-21 06:40:00,
2013-08-21 01:45:00,73.9,66.2,29.96,SSE,157,0.0,0.0,77,0.00,CLR,,0.00,0.0,WeatherDisplay:10.37,2013-08-21 06:45:00,
2013-08-21 01:50:00,73.8,66.1,29.96,SSE,158,0.0,3.5,77,0.00,CLR,,0.00,0.0,WeatherDisplay:10.37,2013-08-21 06:50:00,
2013-08-21 01:55:00,73.5,66.2,29.96,South,186,0.2,2.0,78,0.00,CLR,,0.00,0.0,WeatherDisplay:10.37,2013-08-21 06:55:00,
2013-08-21 02:01:00,73.5,66.2,29.96,South,184,0.0,0.0,78,0.00,CLR,,0.00,0.0,WeatherDisplay:10.37,2013-08-21 07:01:00,
2013-08-21 02:06:00,73.4,66.1,29.96,SSE,164,0.0,0.0,78,0.00,CLR,,0.00,0.0,WeatherDisplay:10.37,2013-08-21 07:06:00,
2013-08-21 02:11:00,73.4,66.1,29.96,SE,132,0.8,3.5,78,0.00,CLR,,0.00,0.0,WeatherDisplay:10.37,2013-08-21 07:11:00,
2013-08-21 02:16:00,73.3,66.0,29.96,SSE,166,1.1,3.5,78,0.00,CLR,,0.00,0.0,WeatherDisplay:10.37,2013-08-21 07:16:00,
2013-08-21 02:22:00,73.1,66.2,29.96,SSE,166,0.0,0.0,79,0.00,CLR,,0.00,0.0,WeatherDisplay:10.37,2013-08-21 07:22:00,
2013-08-21 02:27:00,73.1,66.2,29.96,SSE,166,0.0,1.0,79,0.00,CLR,CLR,0.00,0.0,WeatherDisplay:10.37,2013-08-21 07:27:00,
2013-08-21 02:32:00,72.8,66.3,29.96,SSE,166,0.0,1.0,80,0.00,CLR,CLR,0.00,0.0,WeatherDisplay:10.37,2013-08-21 07:32:00,
2013-08-21 02:37:00,72.9,66.4,29.96,SSE,163,0.0,0.0,80,0.00,CLR,,0.00,0.0,WeatherDisplay:10.37,2013-08-21 07:37:00,
2013-08-21 02:42:00,72.8,66.3,29.96,SSE,163,0.0,0.0,80,0.00,CLR,,0.00,0.0,WeatherDisplay:10.37,2013-08-21 07:42:00,
2013-08-21 02:47:00,72.7,66.2,29.95,SSE,153,0.3,3.5,80,0.00,CLR,,0.00,0.0,WeatherDisplay:10.37,2013-08-21 07:47:00,
2013-08-21 02:52:00,72.8,66.3,29.95,SSE,153,0.0,0.0,80,0.00,CLR,,0.00,0.0,WeatherDisplay:10.37,2013-08-21 07:52:00,
2013-08-21 02:58:00,72.5,66.3,29.96,SSE,153,0.0,0.0,81,0.00,CLR,,0.00,0.0,WeatherDisplay:10.37,2013-08-21 07:58:00,
2013-08-21 03:03:00,72.6,66.1,29.96,SSE,168,0.0,0.0,80,0.00,CLR,,0.00,0.0,WeatherDisplay:10.37,2013-08-21 08:03:00,
2013-08-21 03:08:00,72.4,66.2,29.96,SSE,168,0.0,0.0,81,0.00,CLR,,0.00,0.0,WeatherDisplay:10.37,2013-08-21 08:08:00,
2013-08-21 03:13:00,72.1,66.3,29.95,SSE,166,0.0,1.2,82,0.00,CLR,,0.00,0.0,WeatherDisplay:10.37,2013-08-21 08:13:00,
2013-08-21 03:19:00,72.0,66.2,29.95,SSE,165,0.0,0.0,82,0.00,CLR,,0.00,0.0,WeatherDisplay:10.37,2013-08-21 08:19:00,
2013-08-21 03:24:00,71.8,66.0,29.95,SSE,165,0.0,0.0,82,0.00,CLR,,0.00,0.0,WeatherDisplay:10.37,2013-08-21 08:24:00,
2013-08-21 03:29:00,71.7,66.3,29.95,SSE,165,0.0,0.0,83,0.00,CLR,,0.00,0.0,WeatherDisplay:10.37,2013-08-21 08:29:00,
2013-08-21 03:34:00,71.8,66.4,29.95,SSE,162,0.0,0.0,83,0.00,CLR,,0.00,0.0,WeatherDisplay:10.37,2013-08-21 08:34:00,
2013-08-21 03:40:00,71.7,66.3,29.96,SSE,162,0.0,0.0,83,0.00,CLR,,0.00,0.0,WeatherDisplay:10.37,2013-08-21 08:40:00,
2013-08-21 03:45:00,71.9,66.1,29.95,SSE,162,0.0,0.0,82,0.00,CLR,,0.00,0.0,WeatherDisplay:10.37,2013-08-21 08:45:00,
2013-08-21 03:50:00,71.9,66.5,29.96,SE,136,0.2,2.3,83,0.00,CLR,,0.00,0.0,WeatherDisplay:10.37,2013-08-21 08:50:00,
2013-08-21 03:55:00,72.0,66.2,29.95,SE,136,0.1,0.0,82,0.00,CLR,,0.00,0.0,WeatherDisplay:10.37,2013-08-21 08:55:00,
2013-08-21 04:01:00,72.2,66.4,29.95,SW,214,0.0,0.0,82,0.00,CLR,,0.00,0.0,WeatherDisplay:10.37,2013-08-21 09:01:00,
2013-08-21 04:06:00,72.1,66.3,29.96,South,180,0.0,0.0,82,0.00,CLR,,0.00,0.0,WeatherDisplay:10.37,2013-08-21 09:06:00,
2013-08-21 04:11:00,71.7,66.3,29.96,South,180,0.0,0.0,83,0.00,CLR,,0.00,0.0,WeatherDisplay:10.37,2013-08-21 09:11:00,
2013-08-21 04:16:00,71.6,66.2,29.96,South,180,0.0,0.0,83,0.00,CLR,,0.00,0.0,WeatherDisplay:10.37,2013-08-21 09:16:00,
2013-08-21 04:22:00,71.6,66.2,29.96,South,180,0.0,0.0,83,0.00,CLR,CLR,0.00,0.0,WeatherDisplay:10.37,2013-08-21 09:22:00,
2013-08-21 04:27:00,71.5,66.4,29.96,South,180,0.0,0.0,84,0.00,CLR,CLR,0.00,0.0,WeatherDisplay:10.37,2013-08-21 09:27:00,
2013-08-21 04:32:00,71.3,66.2,29.96,South,180,0.0,0.0,84,0.00,CLR,CLR,0.00,0.0,WeatherDisplay:10.37,2013-08-21 09:32:00,
2013-08-21 04:37:00,71.2,66.1,29.95,South,180,0.0,0.0,84,0.00,CLR,CLR,0.00,0.0,WeatherDisplay:10.37,2013-08-21 09:37:00,
2013-08-21 04:42:00,71.2,66.1,29.95,South,180,0.0,0.0,84,0.00,CLR,,0.00,0.0,WeatherDisplay:10.37,2013-08-21 09:42:00,
2013-08-21 04:47:00,71.1,66.0,29.96,South,180,0.0,0.0,84,0.00,CLR,,0.00,0.0,WeatherDisplay:10.37,2013-08-21 09:47:00,
2013-08-21 04:52:00,71.0,66.3,29.96,South,180,0.0,0.0,85,0.00,CLR,,0.00,0.0,WeatherDisplay:10.37,2013-08-21 09:52:00,
2013-08-21 04:57:00,70.9,66.2,29.96,South,180,0.0,0.0,85,0.00,CLR,,0.00,0.0,WeatherDisplay:10.37,2013-08-21 09:57:00,
2013-08-21 05:03:00,71.0,66.3,29.95,South,180,0.0,0.0,85,0.00,CLR,,0.00,0.0,WeatherDisplay:10.37,2013-08-21 10:03:00,
2013-08-21 05:08:00,70.9,66.2,29.96,South,180,0.0,0.0,85,0.00,CLR,,0.00,0.0,WeatherDisplay:10.37,2013-08-21 10:08:00,
2013-08-21 05:13:00,70.9,66.2,29.96,South,180,0.0,0.0,85,0.00,CLR,,0.00,0.0,WeatherDisplay:10.37,2013-08-21 10:13:00,
2013-08-21 05:18:00,71.0,66.3,29.96,South,180,0.0,0.0,85,0.00,CLR,,0.00,0.0,WeatherDisplay:10.37,2013-08-21 10:18:00,
2013-08-21 05:24:00,71.0,66.3,29.96,South,175,0.0,0.0,85,0.00,CLR,,0.00,0.0,WeatherDisplay:10.37,2013-08-21 10:24:00,
2013-08-21 05:29:00,71.0,66.3,29.96,SSW,200,0.0,0.0,85,0.00,CLR,,0.00,0.0,WeatherDisplay:10.37,2013-08-21 10:29:00,
2013-08-21 05:34:00,70.8,66.4,29.96,SSW,211,0.0,0.0,86,0.00,CLR,,0.00,0.0,WeatherDisplay:10.37,2013-08-21 10:34:00,
2013-08-21 05:39:00,70.8,66.1,29.97,South,190,0.0,0.0,85,0.00,CLR,,0.00,0.0,WeatherDisplay:10.37,2013-08-21 10:39:00,
2013-08-21 05:45:00,70.9,66.2,29.96,SSW,194,0.0,0.0,85,0.00,CLR,,0.00,0.0,WeatherDisplay:10.37,2013-08-21 10:45:00,
2013-08-21 05:50:00,71.0,66.3,29.96,SSW,193,0.0,0.0,85,0.00,CLR,,0.00,0.0,WeatherDisplay:10.37,2013-08-21 10:50:00,
2013-08-21 05:55:00,71.0,66.3,29.96,ESE,118,0.0,0.0,85,0.00,CLR,,0.00,0.0,WeatherDisplay:10.37,2013-08-21 10:55:00,
2013-08-21 06:00:00,71.0,66.3,29.96,ESE,118,0.0,0.0,85,0.00,CLR,,0.00,0.0,WeatherDisplay:10.37,2013-08-21 11:00:00,
2013-08-21 06:06:00,70.8,66.1,29.97,ESE,118,0.0,0.0,85,0.00,CLR,,0.00,0.0,WeatherDisplay:10.37,2013-08-21 11:06:00,
2013-08-21 06:11:00,70.8,66.4,29.97,ESE,119,0.0,0.0,86,0.00,CLR,,0.00,0.0,WeatherDisplay:10.37,2013-08-21 11:11:00,
2013-08-21 06:16:00,70.7,66.3,29.97,ESE,119,0.0,0.0,86,0.00,CLR,,0.00,0.0,WeatherDisplay:10.37,2013-08-21 11:16:00,
2013-08-21 06:21:00,70.6,66.2,29.97,ESE,119,0.0,0.0,86,0.00,CLR,,0.00,0.0,WeatherDisplay:10.37,2013-08-21 11:21:00,
2013-08-21 06:27:00,70.6,66.2,29.97,ESE,119,0.0,0.0,86,0.00,CLR,CLR,0.00,0.0,WeatherDisplay:10.37,2013-08-21 11:27:00,
2013-08-21 06:32:00,70.6,66.2,29.97,ESE,119,0.0,0.0,86,0.00,CLR,,0.00,0.0,WeatherDisplay:10.37,2013-08-21 11:32:00,
2013-08-21 06:37:00,70.8,66.4,29.97,ESE,119,0.0,0.0,86,0.00,CLR,CLR,0.00,0.0,WeatherDisplay:10.37,2013-08-21 11:37:00,
2013-08-21 06:42:00,70.6,66.2,29.98,ESE,119,0.0,0.0,86,0.00,CLR,,0.00,7.0,WeatherDisplay:10.37,2013-08-21 11:42:00,
2013-08-21 06:47:00,70.7,66.3,29.98,ESE,119,0.0,0.0,86,0.00,CLR,,0.00,12.0,WeatherDisplay:10.37,2013-08-21 11:47:00,
2013-08-21 06:52:00,70.7,66.3,29.98,ESE,119,0.0,0.0,86,0.00,CLR,,0.00,16.0,WeatherDisplay:10.37,2013-08-21 11:52:00,
2013-08-21 06:58:00,70.8,66.4,29.98,ESE,119,0.0,0.0,86,0.00,CLR,,0.00,23.0,WeatherDisplay:10.37,2013-08-21 11:58:00,
2013-08-21 07:03:00,70.9,66.5,29.98,ESE,119,0.0,0.0,86,0.00,CLR,,0.00,35.0,WeatherDisplay:10.37,2013-08-21 12:03:00,
2013-08-21 07:08:00,71.2,66.5,29.98,ESE,119,0.0,0.0,85,0.00,CLR,,0.00,42.0,WeatherDisplay:10.37,2013-08-21 12:08:00,
2013-08-21 07:13:00,71.5,66.8,29.98,ESE,119,0.0,0.0,85,0.00,CLR,,0.00,30.0,WeatherDisplay:10.37,2013-08-21 12:13:00,
2013-08-21 07:19:00,71.7,66.6,29.98,South,191,0.1,1.0,84,0.00,CLR,,0.00,28.0,WeatherDisplay:10.37,2013-08-21 12:19:00,
2013-08-21 07:24:00,71.8,66.7,29.98,South,182,0.0,0.0,84,0.00,CLR,,0.00,28.0,WeatherDisplay:10.37,2013-08-21 12:24:00,
2013-08-21 07:29:00,71.8,66.7,29.98,East,100,0.1,3.5,84,0.00,CLR,,0.00,39.0,WeatherDisplay:10.37,2013-08-21 12:29:00,
2013-08-21 07:34:00,71.9,66.8,29.98,East,100,0.0,0.0,84,0.00,CLR,,0.00,49.0,WeatherDisplay:10.37,2013-08-21 12:34:00,
2013-08-21 07:40:00,72.2,66.7,29.98,East,100,0.0,0.0,83,0.00,CLR,,0.00,56.0,WeatherDisplay:10.37,2013-08-21 12:40:00,
2013-08-21 07:45:00,72.6,66.8,29.98,ESE,121,0.1,1.2,82,0.00,CLR,,0.00,63.0,WeatherDisplay:10.37,2013-08-21 12:45:00,
2013-08-21 07:50:00,72.9,67.1,29.98,East,96,0.1,2.3,82,0.00,CLR,,0.00,72.0,WeatherDisplay:10.37,2013-08-21 12:50:00,
2013-08-21 07:55:00,73.1,67.3,29.98,SSE,158,1.1,4.6,82,0.00,CLR,,0.00,77.0,WeatherDisplay:10.37,2013-08-21 12:55:00,
2013-08-21 08:01:00,73.4,67.2,29.98,SW,223,0.0,0.0,81,0.00,CLR,,0.00,77.0,WeatherDisplay:10.37,2013-08-21 13:01:00,
2013-08-21 08:06:00,73.8,67.2,29.98,WSW,250,0.0,0.0,80,0.00,CLR,,0.00,79.0,WeatherDisplay:10.37,2013-08-21 13:06:00,
2013-08-21 08:11:00,74.1,66.8,29.99,SE,136,0.6,3.5,78,0.00,CLR,,0.00,77.0,WeatherDisplay:10.37,2013-08-21 13:11:00,
2013-08-21 08:16:00,74.4,67.1,29.99,SSE,158,3.6,6.9,78,0.00,CLR,,0.00,77.0,WeatherDisplay:10.37,2013-08-21 13:16:00,
2013-08-21 08:22:00,74.8,67.1,29.99,SSE,165,0.7,4.0,77,0.00,CLR,,0.00,72.0,WeatherDisplay:10.37,2013-08-21 13:22:00,
2013-08-21 08:27:00,74.9,67.6,29.99,SSE,164,0.0,3.0,78,0.00,CLR,CLR,0.00,114.0,WeatherDisplay:10.37,2013-08-21 13:27:00,
2013-08-21 08:32:00,75.4,67.7,29.99,South,174,0.0,3.0,77,0.00,CLR,CLR,0.00,149.0,WeatherDisplay:10.37,2013-08-21 13:32:00,
2013-08-21 08:37:00,75.9,67.8,29.99,SE,142,0.0,0.0,76,0.00,CLR,,0.00,156.0,WeatherDisplay:10.37,2013-08-21 13:37:00,
2013-08-21 08:42:00,76.4,67.9,29.99,SE,133,0.0,5.0,75,0.00,CLR,CLR,0.00,135.0,WeatherDisplay:10.37,2013-08-21 13:42:00,
2013-08-21 08:47:00,76.5,68.0,29.99,South,182,0.0,5.0,75,0.00,CLR,CLR,0.00,118.0,WeatherDisplay:10.37,2013-08-21 13:47:00,
2013-08-21 08:52:00,76.4,67.9,29.99,South,190,0.0,2.0,75,0.00,CLR,CLR,0.00,121.0,WeatherDisplay:10.37,2013-08-21 13:52:00,
2013-08-21 08:57:00,76.4,67.9,29.98,SE,144,0.1,4.6,75,0.00,CLR,,0.00,109.0,WeatherDisplay:10.37,2013-08-21 13:57:00,
2013-08-21 09:02:00,76.7,68.2,29.98,ESE,122,0.0,3.0,75,0.00,CLR,CLR,0.00,109.0,WeatherDisplay:10.37,2013-08-21 14:02:00,
2013-08-21 09:07:00,77.1,68.2,29.98,South,170,1.0,10.0,74,0.00,CLR,CLR,0.00,97.0,WeatherDisplay:10.37,2013-08-21 14:07:00,
2013-08-21 09:12:00,77.2,67.9,29.98,SE,129,0.0,9.0,73,0.00,CLR,CLR,0.00,114.0,WeatherDisplay:10.37,2013-08-21 14:12:00,
2013-08-21 09:17:00,77.4,68.1,29.98,SSE,152,0.0,8.0,73,0.00,CLR,CLR,0.00,93.0,WeatherDisplay:10.37,2013-08-21 14:17:00,
2013-08-21 09:22:00,77.6,68.3,29.98,South,184,0.0,7.0,73,0.00,CLR,CLR,0.00,114.0,WeatherDisplay:10.37,2013-08-21 14:22:00,
2013-08-21 09:27:00,77.9,68.1,29.98,South,180,0.0,4.0,72,0.00,CLR,CLR,0.00,116.0,WeatherDisplay:10.37,2013-08-21 14:27:00,
2013-08-21 09:32:00,78.5,68.7,29.98,SW,215,1.0,6.0,72,0.00,CLR,CLR,0.00,118.0,WeatherDisplay:10.37,2013-08-21 14:32:00,
2013-08-21 09:37:00,78.7,68.1,29.98,SSW,205,1.0,7.0,70,0.00,CLR,CLR,0.00,123.0,WeatherDisplay:10.37,2013-08-21 14:37:00,
2013-08-21 09:42:00,79.0,68.4,29.98,West,269,0.1,1.2,70,0.00,CLR,,0.00,125.0,WeatherDisplay:10.37,2013-08-21 14:42:00,
2013-08-21 09:47:00,79.5,68.0,29.98,SSE,152,2.9,5.8,68,0.00,CLR,,0.00,128.0,WeatherDisplay:10.37,2013-08-21 14:47:00,
2013-08-21 09:52:00,79.7,68.2,29.98,South,175,0.4,3.5,68,0.00,CLR,,0.00,128.0,WeatherDisplay:10.37,2013-08-21 14:52:00,
2013-08-21 09:58:00,80.0,68.9,29.98,South,169,0.0,0.0,69,0.00,CLR,,0.00,130.0,WeatherDisplay:10.37,2013-08-21 14:58:00,
2013-08-21 10:03:00,80.3,68.8,29.98,SE,142,0.0,0.0,68,0.00,CLR,,0.00,132.0,WeatherDisplay:10.37,2013-08-21 15:03:00,
2013-08-21 10:08:00,80.5,69.0,29.98,SSE,154,0.7,5.8,68,0.00,CLR,,0.00,135.0,WeatherDisplay:10.37,2013-08-21 15:08:00,
2013-08-21 10:13:00,80.8,68.8,29.98,SE,141,0.4,8.1,67,0.00,CLR,,0.00,139.0,WeatherDisplay:10.37,2013-08-21 15:13:00,
2013-08-21 10:19:00,81.2,69.6,29.98,SSE,150,0.0,0.0,68,0.00,CLR,,0.00,142.0,WeatherDisplay:10.37,2013-08-21 15:19:00,
2013-08-21 10:24:00,81.9,69.4,29.98,SW,235,0.1,1.2,66,0.00,CLR,,0.00,146.0,WeatherDisplay:10.37,2013-08-21 15:24:00,
2013-08-21 10:29:00,82.2,69.7,29.97,SW,216,1.6,5.8,66,0.00,CLR,,0.00,153.0,WeatherDisplay:10.37,2013-08-21 15:29:00,
2013-08-21 10:34:00,82.3,68.9,29.98,South,171,0.8,5.8,64,0.00,CLR,,0.00,160.0,WeatherDisplay:10.37,2013-08-21 15:34:00,
2013-08-21 10:40:00,82.4,69.0,29.98,NE,34,0.6,5.8,64,0.00,CLR,,0.00,294.0,WeatherDisplay:10.37,2013-08-21 15:40:00,
2013-08-21 10:45:00,82.7,69.3,29.98,ESE,113,0.0,0.0,64,0.00,CLR,,0.00,162.0,WeatherDisplay:10.37,2013-08-21 15:45:00,
2013-08-21 10:50:00,82.8,68.9,29.98,SSW,209,0.0,0.0,63,0.00,CLR,,0.00,176.0,WeatherDisplay:10.37,2013-08-21 15:50:00,
2013-08-21 10:55:00,83.6,69.2,29.98,SSE,159,1.4,8.0,62,0.00,CLR,,0.00,167.0,WeatherDisplay:10.37,2013-08-21 15:55:00,
2013-08-21 11:01:00,83.8,68.9,29.98,South,178,2.6,10.4,61,0.00,CLR,,0.00,236.0,WeatherDisplay:10.37,2013-08-21 16:01:00,
2013-08-21 11:06:00,83.9,68.5,29.98,SSE,163,3.8,10.4,60,0.00,CLR,,0.00,443.0,WeatherDisplay:10.37,2013-08-21 16:06:00,
2013-08-21 11:11:00,84.2,69.3,29.98,West,280,0.0,1.2,61,0.00,CLR,,0.00,640.0,WeatherDisplay:10.37,2013-08-21 16:11:00,
2013-08-21 11:16:00,84.8,69.9,29.98,SSE,167,0.2,5.0,61,0.00,CLR,,0.00,664.0,WeatherDisplay:10.37,2013-08-21 16:16:00,
2013-08-21 11:22:00,85.3,68.8,29.97,SSW,204,1.7,5.0,58,0.00,CLR,,0.00,584.0,WeatherDisplay:10.37,2013-08-21 16:22:00,
2013-08-21 11:27:00,85.6,69.1,29.98,SSW,199,0.0,7.0,58,0.00,CLR,CLR,0.00,671.0,WeatherDisplay:10.37,2013-08-21 16:27:00,
2013-08-21 11:32:00,85.6,69.2,29.98,SSW,194,1.0,7.0,58,0.00,CLR,CLR,0.00,506.0,WeatherDisplay:10.37,2013-08-21 16:32:00,
2013-08-21 11:37:00,85.9,68.9,29.98,South,185,4.7,9.2,57,0.00,CLR,,0.00,729.0,WeatherDisplay:10.37,2013-08-21 16:37:00,
2013-08-21 11:42:00,86.2,68.7,29.97,SE,128,0.1,1.2,56,0.00,CLR,,0.00,802.0,WeatherDisplay:10.37,2013-08-21 16:42:00,
2013-08-21 11:47:00,86.9,68.8,29.98,SSE,150,3.6,9.2,55,0.00,CLR,,0.00,737.0,WeatherDisplay:10.37,2013-08-21 16:47:00,
2013-08-21 11:52:00,86.9,68.8,29.98,WSW,250,1.2,3.5,55,0.00,CLR,,0.00,443.0,WeatherDisplay:10.37,2013-08-21 16:52:00,
2013-08-21 11:58:00,87.3,69.2,29.98,SE,138,0.0,1.2,55,0.00,CLR,,0.00,540.0,WeatherDisplay:10.37,2013-08-21 16:58:00,
2013-08-21 12:03:00,87.2,68.0,29.98,NW,313,6.2,12.7,53,0.00,CLR,,0.00,717.0,WeatherDisplay:10.37,2013-08-21 17:03:00,
2013-08-21 12:08:00,87.0,68.9,29.98,SSW,196,1.2,8.1,55,0.00,CLR,,0.00,687.0,WeatherDisplay:10.37,2013-08-21 17:08:00,
2013-08-21 12:13:00,87.9,70.8,29.98,SSE,151,0.2,2.0,57,0.00,CLR,,0.00,802.0,WeatherDisplay:10.37,2013-08-21 17:13:00,
2013-08-21 12:19:00,88.6,68.7,29.98,West,270,0.9,3.5,52,0.00,CLR,,0.00,775.0,WeatherDisplay:10.37,2013-08-21 17:19:00,
2013-08-21 12:24:00,88.4,69.1,29.98,SE,130,2.1,10.4,53,0.00,CLR,,0.00,519.0,WeatherDisplay:10.37,2013-08-21 17:24:00,
2013-08-21 12:29:00,88.3,69.5,29.98,North,349,0.1,1.2,54,0.00,CLR,,0.00,677.0,WeatherDisplay:10.37,2013-08-21 17:29:00,
2013-08-21 12:34:00,88.5,68.6,29.97,SSW,192,1.1,3.5,52,0.00,CLR,,0.00,636.0,WeatherDisplay:10.37,2013-08-21 17:34:00,
2013-08-21 12:40:00,88.7,69.4,29.97,SSW,200,0.0,3.5,53,0.00,CLR,,0.00,729.0,WeatherDisplay:10.37,2013-08-21 17:40:00,
2013-08-21 12:45:00,90.0,70.0,29.97,NW,319,0.0,0.0,52,0.00,CLR,,0.00,837.0,WeatherDisplay:10.37,2013-08-21 17:45:00,
2013-08-21 12:50:00,90.5,69.3,29.97,WSW,256,1.8,6.0,50,0.00,CLR,,0.00,833.0,WeatherDisplay:10.37,2013-08-21 17:50:00,
2013-08-21 12:55:00,89.5,67.8,29.97,South,186,3.5,8.1,49,0.00,CLR,,0.00,325.0,WeatherDisplay:10.37,2013-08-21 17:55:00,
2013-08-21 13:01:00,88.3,68.4,29.97,SE,137,0.9,2.3,52,0.00,CLR,,0.00,341.0,WeatherDisplay:10.37,2013-08-21 18:01:00,
2013-08-21 13:02:00,91.6,67.9,29.97,NNE,13,2.0,8.0,46,0.00,OVC,OVC,0.00,754.0,WeatherDisplay:10.37,2013-08-21 18:02:00,
2013-08-21 13:06:00,89.0,68.5,29.97,ESE,113,1.5,10.0,51,0.00,CLR,,0.00,816.0,WeatherDisplay:10.37,2013-08-21 18:06:00,
2013-08-21 13:07:00,91.8,68.7,29.96,East,88,0.0,6.0,47,0.00,OVC,OVC,0.00,765.0,WeatherDisplay:10.37,2013-08-21 18:07:00,
2013-08-21 13:11:00,90.1,70.7,29.96,SW,227,0.0,1.2,53,0.00,CLR,,0.00,798.0,WeatherDisplay:10.37,2013-08-21 18:11:00,
2013-08-21 13:12:00,92.3,69.2,29.96,SSE,159,3.0,9.0,47,0.00,CLR,CLR,0.00,780.0,WeatherDisplay:10.37,2013-08-21 18:12:00,
2013-08-21 13:16:00,90.6,68.8,29.96,South,181,0.5,9.2,49,0.00,CLR,,0.00,795.0,WeatherDisplay:10.37,2013-08-21 18:16:00,
2013-08-21 13:22:00,90.3,68.6,29.97,South,190,1.0,12.0,49,0.00,CLR,CLR,0.00,803.0,WeatherDisplay:10.37,2013-08-21 18:22:00,
2013-08-21 13:27:00,91.1,68.7,29.97,SE,133,2.1,7.0,48,0.00,CLR,,0.00,810.0,WeatherDisplay:10.37,2013-08-21 18:27:00,
2013-08-21 13:32:00,91.0,68.6,29.97,SW,216,3.0,12.0,48,0.00,CLR,CLR,0.00,809.0,WeatherDisplay:10.37,2013-08-21 18:32:00,
2013-08-21 13:37:00,91.3,68.9,29.97,South,191,0.0,8.0,48,0.00,CLR,CLR,0.00,809.0,WeatherDisplay:10.37,2013-08-21 18:37:00,
2013-08-21 13:42:00,92.0,68.3,29.97,SSE,158,1.0,9.0,46,0.00,CLR,CLR,0.00,816.0,WeatherDisplay:10.37,2013-08-21 18:42:00,
2013-08-21 13:47:00,91.9,68.8,29.97,SSE,158,1.0,7.0,47,0.00,CLR,CLR,0.00,803.0,WeatherDisplay:10.37,2013-08-21 18:47:00,
2013-08-21 13:52:00,91.6,68.5,29.97,SE,143,6.0,12.0,47,0.00,CLR,CLR,0.00,715.0,WeatherDisplay:10.37,2013-08-21 18:52:00,
2013-08-21 13:57:00,91.2,68.2,29.97,SE,139,1.0,7.0,47,0.00,CLR,CLR,0.00,712.0,WeatherDisplay:10.37,2013-08-21 18:57:00,
2013-08-21 14:02:00,91.6,67.9,29.97,ESE,106,2.4,8.1,46,0.00,CLR,,0.00,754.0,WeatherDisplay:10.37,2013-08-21 19:02:00,
2013-08-21 14:07:00,91.8,68.7,29.96,SE,143,0.0,1.2,47,0.00,CLR,,0.00,772.0,WeatherDisplay:10.37,2013-08-21 19:07:00,
2013-08-21 14:15:00,91.9,67.5,29.96,SW,231,2.3,9.0,45,0.00,CLR,,0.00,779.0,WeatherDisplay:10.37,2013-08-21 19:15:00,
2013-08-21 14:20:00,92.0,67.6,29.96,SE,132,1.5,5.0,45,0.00,CLR,,0.00,779.0,WeatherDisplay:10.37,2013-08-21 19:20:00,
2013-08-21 14:25:00,92.6,67.5,29.96,SE,125,1.5,7.0,44,0.00,CLR,,0.00,770.0,WeatherDisplay:10.37,2013-08-21 19:25:00,
2013-08-21 14:30:00,93.1,66.6,29.96,South,173,2.0,6.9,42,0.00,CLR,,0.00,777.0,WeatherDisplay:10.37,2013-08-21 19:30:00,
2013-08-21 14:32:00,91.2,67.5,29.96,East,98,0.0,3.0,46,0.00,OVC,OVC,0.00,304.0,WeatherDisplay:10.37,2013-08-21 19:32:00,
2013-08-21 14:36:00,92.9,67.1,29.96,SSE,157,0.0,10.4,43,0.00,CLR,,0.00,779.0,WeatherDisplay:10.37,2013-08-21 19:36:00,
2013-08-21 14:37:00,90.9,67.3,29.95,SSE,158,0.0,9.0,46,0.00,OVC,OVC,0.00,427.0,WeatherDisplay:10.37,2013-08-21 19:37:00,
2013-08-21 14:41:00,92.9,67.1,29.96,SW,217,1.7,5.8,43,0.00,CLR,,0.00,399.0,WeatherDisplay:10.37,2013-08-21 19:41:00,
2013-08-21 14:42:00,91.3,68.2,29.95,NNW,344,0.0,0.0,47,0.00,OVC,OVC,0.00,512.0,WeatherDisplay:10.37,2013-08-21 19:42:00,
2013-08-21 14:46:00,91.7,67.3,29.96,WNW,288,1.2,11.5,45,0.00,CLR,,0.00,666.0,WeatherDisplay:10.37,2013-08-21 19:46:00,
2013-08-21 14:47:00,91.2,68.2,29.95,SSW,197,0.0,6.0,47,0.00,OVC,OVC,0.00,308.0,WeatherDisplay:10.37,2013-08-21 19:47:00,
2013-08-21 14:51:00,91.6,66.6,29.96,SE,128,0.1,6.9,44,0.00,CLR,,0.00,485.0,WeatherDisplay:10.37,2013-08-21 19:51:00,
2013-08-21 14:52:00,90.9,67.9,29.95,South,190,1.0,7.0,47,0.00,CLR,CLR,0.00,267.0,WeatherDisplay:10.37,2013-08-21 19:52:00,
2013-08-21 14:57:00,91.7,68.0,29.96,SW,222,2.2,9.2,46,0.00,CLR,,0.00,404.0,WeatherDisplay:10.37,2013-08-21 19:57:00,
2013-08-21 15:02:00,90.4,68.6,29.95,South,187,0.0,7.0,49,0.00,CLR,CLR,0.00,265.0,WeatherDisplay:10.37,2013-08-21 20:02:00,
2013-08-21 15:09:00,92.3,66.6,29.95,South,171,1.9,4.6,43,0.00,CLR,,0.00,555.0,WeatherDisplay:10.37,2013-08-21 20:09:00,
2013-08-21 15:12:00,90.3,67.9,29.94,North,0,0.0,0.0,48,0.00,OVC,OVC,0.00,295.0,WeatherDisplay:10.37,2013-08-21 20:12:00,
2013-08-21 15:14:00,91.7,67.3,29.96,South,181,0.5,3.5,45,0.00,CLR,,0.00,413.0,WeatherDisplay:10.37,2013-08-21 20:14:00,
2013-08-21 15:17:00,90.3,67.9,29.94,South,180,1.0,7.0,48,0.00,OVC,OVC,0.00,301.0,WeatherDisplay:10.37,2013-08-21 20:17:00,
2013-08-21 15:19:00,91.4,67.1,29.95,East,88,1.3,2.3,45,0.00,CLR,,0.00,515.0,WeatherDisplay:10.37,2013-08-21 20:19:00,
2013-08-21 15:22:00,90.1,67.2,29.94,North,0,0.0,3.0,47,0.00,OVC,OVC,0.00,257.0,WeatherDisplay:10.37,2013-08-21 20:22:00,
2013-08-21 15:24:00,91.5,67.2,29.95,East,88,0.0,2.3,45,0.00,CLR,,0.00,436.0,WeatherDisplay:10.37,2013-08-21 20:24:00,
2013-08-21 15:27:00,89.9,67.0,29.94,SSE,158,0.0,7.0,47,0.00,OVC,OVC,0.00,246.0,WeatherDisplay:10.37,2013-08-21 20:27:00,
2013-08-21 15:30:00,91.4,68.3,29.95,NW,311,0.3,1.2,47,0.00,CLR,,0.00,320.0,WeatherDisplay:10.37,2013-08-21 20:30:00,
2013-08-21 15:39:00,90.9,67.3,29.95,SSE,164,2.0,9.0,46,0.00,OVC,,0.00,420.0,WeatherDisplay:10.37,2013-08-21 20:39:00,
2013-08-21 15:42:00,90.8,68.4,29.94,North,0,2.0,6.0,48,0.00,OVC,OVC,0.00,557.0,WeatherDisplay:10.37,2013-08-21 20:42:00,
2013-08-21 15:45:00,91.3,67.6,29.95,NNW,327,1.4,5.8,46,0.00,CLR,,0.00,327.0,WeatherDisplay:10.37,2013-08-21 20:45:00,
2013-08-21 15:54:00,90.6,68.2,29.95,SSE,157,1.0,7.0,48,0.00,CLR,,0.00,253.0,WeatherDisplay:10.37,2013-08-21 20:54:00,
2013-08-21 16:03:00,90.3,69.1,29.95,SSE,166,0.0,7.0,50,0.00,CLR,,0.00,276.0,WeatherDisplay:10.37,2013-08-21 21:03:00,
2013-08-21 16:09:00,90.2,67.9,29.95,South,181,0.0,3.5,48,0.00,CLR,,0.00,306.0,WeatherDisplay:10.37,2013-08-21 21:09:00,
2013-08-21 16:20:00,90.1,67.8,29.94,SSE,153,0.7,7.0,48,0.00,CLR,,0.00,257.0,WeatherDisplay:10.37,2013-08-21 21:20:00,
2013-08-21 16:27:00,90.8,69.0,29.94,SSE,160,1.0,4.0,49,0.00,OVC,OVC,0.00,128.0,WeatherDisplay:10.37,2013-08-21 21:27:00,
2013-08-21 16:30:00,90.1,67.8,29.94,SSE,163,0.0,7.0,48,0.00,CLR,,0.00,241.0,WeatherDisplay:10.37,2013-08-21 21:30:00,
2013-08-21 16:32:00,90.2,68.5,29.94,SSE,151,0.0,3.0,49,0.00,CLR,CLR,0.00,111.0,WeatherDisplay:10.37,2013-08-21 21:32:00,
2013-08-21 16:36:00,89.6,67.9,29.94,South,171,0.9,4.0,49,0.00,CLR,,0.00,283.0,WeatherDisplay:10.37,2013-08-21 21:36:00,
2013-08-21 16:37:00,89.8,68.1,29.94,SSE,155,0.0,6.0,49,0.00,CLR,CLR,0.00,139.0,WeatherDisplay:10.37,2013-08-21 21:37:00,
2013-08-21 16:45:00,91.1,68.7,29.94,SSE,165,1.0,4.0,48,0.00,CLR,,0.00,552.0,WeatherDisplay:10.37,2013-08-21 21:45:00,
2013-08-21 16:51:00,91.5,69.0,29.94,South,173,0.0,0.0,48,0.00,CLR,,0.00,559.0,WeatherDisplay:10.37,2013-08-21 21:51:00,
2013-08-21 16:56:00,91.5,67.8,29.94,SE,143,0.0,1.2,46,0.00,CLR,,0.00,519.0,WeatherDisplay:10.37,2013-08-21 21:56:00,
2013-08-21 17:01:00,91.3,68.9,29.94,SE,146,0.1,3.5,48,0.00,CLR,,0.00,244.0,WeatherDisplay:10.37,2013-08-21 22:01:00,
2013-08-21 17:06:00,91.2,68.2,29.94,ESE,104,0.0,2.3,47,0.00,CLR,,0.00,223.0,WeatherDisplay:10.37,2013-08-21 22:06:00,
2013-08-21 17:12:00,91.2,69.4,29.94,SSE,160,0.0,5.0,49,0.00,CLR,CLR,0.00,199.0,WeatherDisplay:10.37,2013-08-21 22:12:00,
2013-08-21 17:17:00,90.7,68.3,29.94,South,171,0.0,8.1,48,0.00,CLR,,0.00,172.0,WeatherDisplay:10.37,2013-08-21 22:17:00,
2013-08-21 17:22:00,90.8,69.0,29.94,SSE,164,1.0,4.0,49,0.00,CLR,CLR,0.00,148.0,WeatherDisplay:10.37,2013-08-21 22:22:00,
2013-08-21 17:40:00,89.8,68.7,29.93,SSE,163,0.0,5.0,50,0.00,CLR,,0.00,132.0,WeatherDisplay:10.37,2013-08-21 22:40:00,
2013-08-21 17:45:00,89.7,68.0,29.93,South,169,0.7,8.1,49,0.00,CLR,,0.00,146.0,WeatherDisplay:10.37,2013-08-21 22:45:00,
2013-08-21 17:50:00,89.7,67.4,29.93,SE,138,1.0,4.6,48,0.00,CLR,,0.00,163.0,WeatherDisplay:10.37,2013-08-21 22:50:00,
2013-08-21 17:55:00,89.8,67.5,29.93,South,180,0.0,3.5,48,0.00,CLR,,0.00,162.0,WeatherDisplay:10.37,2013-08-21 22:55:00,
2013-08-21 18:01:00,89.9,68.8,29.93,ESE,120,0.3,9.2,50,0.00,CLR,,0.00,155.0,WeatherDisplay:10.37,2013-08-21 23:01:00,
2013-08-21 18:06:00,89.8,68.1,29.93,SSW,192,0.2,1.2,49,0.00,CLR,,0.00,132.0,WeatherDisplay:10.37,2013-08-21 23:06:00,
2013-08-21 18:11:00,89.7,68.6,29.93,SSE,160,0.0,0.0,50,0.00,CLR,,0.00,114.0,WeatherDisplay:10.37,2013-08-21 23:11:00,
2013-08-21 18:16:00,89.3,67.6,29.93,SSE,151,0.0,6.9,49,0.00,CLR,,0.00,83.0,WeatherDisplay:10.37,2013-08-21 23:16:00,
2013-08-21 18:22:00,88.6,67.0,29.93,SSE,167,2.1,2.3,49,0.00,CLR,,0.00,90.0,WeatherDisplay:10.37,2013-08-21 23:22:00,
2013-08-21 18:27:00,88.4,68.0,29.93,SSE,165,0.0,2.0,51,0.00,CLR,CLR,0.00,88.0,WeatherDisplay:10.37,2013-08-21 23:27:00,
2013-08-21 18:32:00,88.1,68.3,29.93,SSE,151,0.0,4.0,52,0.00,CLR,CLR,0.00,77.0,WeatherDisplay:10.37,2013-08-21 23:32:00,
2013-08-21 18:37:00,88.0,67.6,29.93,SSE,155,0.8,3.5,51,0.00,CLR,,0.00,58.0,WeatherDisplay:10.37,2013-08-21 23:37:00,
2013-08-21 18:42:00,87.6,67.2,29.93,SSE,147,0.0,4.0,51,0.00,CLR,CLR,0.00,46.0,WeatherDisplay:10.37,2013-08-21 23:42:00,
2013-08-21 18:47:00,86.7,68.1,29.93,SSE,159,0.0,0.0,54,0.00,CLR,CLR,0.00,39.0,WeatherDisplay:10.37,2013-08-21 23:47:00,
2013-08-21 18:52:00,86.2,68.1,29.93,South,169,0.0,0.0,55,0.00,CLR,,0.00,35.0,WeatherDisplay:10.37,2013-08-21 23:52:00,
2013-08-21 18:57:00,85.7,68.7,29.93,South,169,0.0,0.0,57,0.00,CLR,,0.00,35.0,WeatherDisplay:10.37,2013-08-21 23:57:00,
2013-08-21 19:02:00,85.4,68.9,29.93,South,169,0.0,0.0,58,0.00,CLR,,0.00,35.0,WeatherDisplay:10.37,2013-08-22 00:02:00,
2013-08-21 19:07:00,85.2,69.3,29.93,South,169,0.0,0.0,59,0.00,CLR,,0.00,39.0,WeatherDisplay:10.37,2013-08-22 00:07:00,
2013-08-21 19:13:00,84.9,69.5,29.93,South,169,0.0,0.0,60,0.00,CLR,,0.00,35.0,WeatherDisplay:10.37,2013-08-22 00:13:00,
2013-08-21 19:18:00,84.8,69.4,29.93,South,169,0.0,0.0,60,0.00,CLR,,0.00,40.0,WeatherDisplay:10.37,2013-08-22 00:18:00,
2013-08-21 19:23:00,84.7,69.3,29.93,South,169,0.0,0.0,60,0.00,CLR,,0.00,40.0,WeatherDisplay:10.37,2013-08-22 00:23:00,
2013-08-21 19:28:00,84.6,68.7,29.94,South,171,0.1,2.0,59,0.00,CLR,,0.00,37.0,WeatherDisplay:10.37,2013-08-22 00:28:00,
2013-08-21 19:34:00,85.0,69.1,29.93,SSE,159,0.0,0.0,59,0.00,CLR,,0.00,26.0,WeatherDisplay:10.37,2013-08-22 00:34:00,
2013-08-21 19:39:00,84.6,68.7,29.93,SSE,158,0.0,0.0,59,0.00,CLR,,0.00,19.0,WeatherDisplay:10.37,2013-08-22 00:39:00,
2013-08-21 19:44:00,83.9,69.0,29.93,SSE,159,0.0,0.0,61,0.00,CLR,,0.00,12.0,WeatherDisplay:10.37,2013-08-22 00:44:00,
2013-08-21 19:49:00,83.4,69.0,29.93,SSE,159,0.0,0.0,62,0.00,CLR,,0.00,7.0,WeatherDisplay:10.37,2013-08-22 00:49:00,
2013-08-21 19:55:00,83.0,69.1,29.93,SSE,159,0.0,0.0,63,0.00,CLR,,0.00,0.0,WeatherDisplay:10.37,2013-08-22 00:55:00,
2013-08-21 20:00:00,82.7,68.8,29.93,SSE,159,0.0,0.0,63,0.00,CLR,,0.00,0.0,WeatherDisplay:10.37,2013-08-22 01:00:00,
2013-08-21 20:05:00,82.1,68.7,29.93,SSE,159,0.0,0.0,64,0.00,CLR,,0.00,0.0,WeatherDisplay:10.37,2013-08-22 01:05:00,
2013-08-21 20:10:00,81.9,69.0,29.93,SSE,159,0.0,0.0,65,0.00,CLR,,0.00,0.0,WeatherDisplay:10.37,2013-08-22 01:10:00,
2013-08-21 20:16:00,81.8,68.9,29.93,SE,138,0.5,2.3,65,0.00,CLR,,0.00,0.0,WeatherDisplay:10.37,2013-08-22 01:16:00,
2013-08-21 20:21:00,81.7,69.2,29.94,SE,138,0.0,0.0,66,0.00,CLR,,0.00,0.0,WeatherDisplay:10.37,2013-08-22 01:21:00,
2013-08-21 20:26:00,81.3,69.3,29.94,SE,138,0.0,0.0,67,0.00,CLR,,0.00,0.0,WeatherDisplay:10.37,2013-08-22 01:26:00,
2013-08-21 20:31:00,81.1,69.5,29.93,SE,138,0.0,0.0,68,0.00,CLR,,0.00,0.0,WeatherDisplay:10.37,2013-08-22 01:31:00,
2013-08-21 20:37:00,80.9,69.3,29.93,SE,141,0.0,0.0,68,0.00,CLR,CLR,0.00,0.0,WeatherDisplay:10.37,2013-08-22 01:37:00,
2013-08-21 20:42:00,80.8,69.2,29.94,SE,146,0.0,0.0,68,0.00,CLR,CLR,0.00,0.0,WeatherDisplay:10.37,2013-08-22 01:42:00,
2013-08-21 20:47:00,80.5,69.4,29.94,SSE,148,0.0,0.0,69,0.00,CLR,CLR,0.00,0.0,WeatherDisplay:10.37,2013-08-22 01:47:00,
2013-08-21 20:52:00,80.4,69.3,29.95,SSE,148,0.0,0.0,69,0.00,CLR,CLR,0.00,0.0,WeatherDisplay:10.37,2013-08-22 01:52:00,
2013-08-21 20:57:00,80.2,69.5,29.95,SSE,148,0.0,0.0,70,0.00,CLR,CLR,0.00,0.0,WeatherDisplay:10.37,2013-08-22 01:57:00,
2013-08-21 21:02:00,79.8,69.6,29.95,SSE,148,0.0,0.0,71,0.00,CLR,CLR,0.00,0.0,WeatherDisplay:10.37,2013-08-22 02:02:00,
2013-08-21 21:07:00,79.5,69.3,29.95,SSE,148,0.0,0.0,71,0.00,CLR,CLR,0.00,0.0,WeatherDisplay:10.37,2013-08-22 02:07:00,
2013-08-21 21:12:00,79.5,69.3,29.95,SSE,148,0.0,0.0,71,0.00,CLR,CLR,0.00,0.0,WeatherDisplay:10.37,2013-08-22 02:12:00,
2013-08-21 21:17:00,79.2,69.4,29.95,SSE,148,0.0,0.0,72,0.00,CLR,CLR,0.00,0.0,WeatherDisplay:10.37,2013-08-22 02:17:00,
2013-08-21 21:22:00,79.0,69.2,29.95,SSE,149,0.0,0.0,72,0.00,CLR,CLR,0.00,0.0,WeatherDisplay:10.37,2013-08-22 02:22:00,
2013-08-21 21:27:00,79.0,69.2,29.95,SSE,150,0.0,0.0,72,0.00,CLR,CLR,0.00,0.0,WeatherDisplay:10.37,2013-08-22 02:27:00,
2013-08-21 21:32:00,79.0,69.2,29.95,SSE,151,0.0,0.0,72,0.00,CLR,CLR,0.00,0.0,WeatherDisplay:10.37,2013-08-22 02:32:00,
2013-08-21 21:37:00,78.7,68.9,29.95,SSE,150,0.0,0.0,72,0.00,CLR,,0.00,0.0,WeatherDisplay:10.37,2013-08-22 02:37:00,
2013-08-21 21:42:00,78.7,68.9,29.95,SSE,150,0.0,0.0,72,0.00,CLR,CLR,0.00,0.0,WeatherDisplay:10.37,2013-08-22 02:42:00,
2013-08-21 21:47:00,78.6,69.3,29.95,SSE,150,0.0,0.0,73,0.00,CLR,CLR,0.00,0.0,WeatherDisplay:10.37,2013-08-22 02:47:00,
2013-08-21 21:52:00,78.3,68.9,29.95,SSE,150,0.0,0.0,73,0.00,CLR,CLR,0.00,0.0,WeatherDisplay:10.37,2013-08-22 02:52:00,
2013-08-21 21:57:00,78.0,69.0,29.96,SSE,150,0.0,0.0,74,0.00,CLR,CLR,0.00,0.0,WeatherDisplay:10.37,2013-08-22 02:57:00,
2013-08-21 22:02:00,77.6,68.7,29.96,SSE,150,0.0,0.0,74,0.00,CLR,CLR,0.00,0.0,WeatherDisplay:10.37,2013-08-22 03:02:00,
2013-08-21 22:07:00,77.7,68.7,29.96,SSE,150,0.0,0.0,74,0.00,CLR,CLR,0.00,0.0,WeatherDisplay:10.37,2013-08-22 03:07:00,
2013-08-21 22:12:00,77.5,68.9,29.97,SSE,150,0.0,0.0,75,0.00,CLR,CLR,0.00,0.0,WeatherDisplay:10.37,2013-08-22 03:12:00,
2013-08-21 22:17:00,77.1,68.6,29.97,SSE,150,0.0,0.0,75,0.00,CLR,CLR,0.00,0.0,WeatherDisplay:10.37,2013-08-22 03:17:00,
2013-08-21 22:22:00,76.9,68.7,29.97,SSE,150,0.0,0.0,76,0.00,CLR,CLR,0.00,0.0,WeatherDisplay:10.37,2013-08-22 03:22:00,
2013-08-21 22:27:00,76.6,68.5,29.97,SSE,150,0.0,0.0,76,0.00,CLR,CLR,0.00,0.0,WeatherDisplay:10.37,2013-08-22 03:27:00,
2013-08-21 22:32:00,76.5,68.7,29.97,SSE,150,0.0,0.0,77,0.00,CLR,,0.00,0.0,WeatherDisplay:10.37,2013-08-22 03:32:00,
2013-08-21 22:37:00,76.4,68.6,29.97,SSE,150,0.0,0.0,77,0.00,CLR,CLR,0.00,0.0,WeatherDisplay:10.37,2013-08-22 03:37:00,
2013-08-21 22:42:00,76.2,68.8,29.97,SSE,150,0.0,0.0,78,0.00,CLR,CLR,0.00,0.0,WeatherDisplay:10.37,2013-08-22 03:42:00,
2013-08-21 22:47:00,76.1,68.3,29.97,SSE,150,0.0,0.0,77,0.00,CLR,CLR,0.00,0.0,WeatherDisplay:10.37,2013-08-22 03:47:00,
2013-08-21 22:52:00,76.0,68.3,29.97,SSE,150,0.0,0.0,77,0.00,CLR,CLR,0.00,0.0,WeatherDisplay:10.37,2013-08-22 03:52:00,
2013-08-21 22:57:00,76.0,68.3,29.97,SSE,150,0.0,0.0,77,0.00,CLR,CLR,0.00,0.0,WeatherDisplay:10.37,2013-08-22 03:57:00,
2013-08-21 23:01:00,75.8,68.4,29.97,SSE,150,0.0,0.0,78,0.00,CLR,,0.00,0.0,WeatherDisplay:10.37,2013-08-22 04:01:00,
2013-08-21 23:02:00,75.8,68.4,29.97,SSE,150,0.0,0.0,78,0.00,CLR,,0.00,0.0,WeatherDisplay:10.37,2013-08-22 04:02:00,
2013-08-21 23:05:00,75.8,68.4,29.97,SSE,150,0.0,0.0,78,0.00,CLR,,0.00,0.0,WeatherDisplay:10.37,2013-08-22 04:05:00,
2013-08-21 23:10:00,75.7,68.4,29.97,SSE,150,0.0,0.0,78,0.00,CLR,,0.00,0.0,WeatherDisplay:10.37,2013-08-22 04:10:00,
2013-08-21 23:15:00,75.3,68.3,29.97,South,182,0.1,1.2,79,0.00,CLR,,0.00,0.0,WeatherDisplay:10.37,2013-08-22 04:15:00,
2013-08-21 23:20:00,75.1,68.1,29.97,NW,317,0.0,0.0,79,0.00,CLR,,0.00,0.0,WeatherDisplay:10.37,2013-08-22 04:20:00,
2013-08-21 23:26:00,75.1,68.1,29.97,NW,317,0.0,0.0,79,0.00,CLR,,0.00,0.0,WeatherDisplay:10.37,2013-08-22 04:26:00,
2013-08-21 23:31:00,75.0,68.4,29.97,NW,317,0.0,0.0,80,0.00,CLR,,0.00,0.0,WeatherDisplay:10.37,2013-08-22 04:31:00,
2013-08-21 23:36:00,75.0,68.0,29.97,NW,317,0.0,0.0,79,0.00,CLR,,0.00,0.0,WeatherDisplay:10.37,2013-08-22 04:36:00,
2013-08-21 23:41:00,75.2,68.2,29.97,NW,317,0.0,0.0,79,0.00,CLR,,0.00,0.0,WeatherDisplay:10.37,2013-08-22 04:41:00,
2013-08-21 23:47:00,75.2,68.2,29.97,NW,317,0.0,0.0,79,0.00,CLR,,0.00,0.0,WeatherDisplay:10.37,2013-08-22 04:47:00,
2013-08-21 23:52:00,74.9,68.3,29.97,NW,317,0.0,0.0,80,0.00,CLR,CLR,0.00,0.0,WeatherDisplay:10.37,2013-08-22 04:52:00,
2013-08-21 23:57:00,74.7,68.1,29.97,NW,317,0.0,0.0,80,0.00,CLR,,0.00,0.0,WeatherDisplay:10.37,2013-08-22 04:57:00,